Bartlesville, OK

7:53 PM CDT on July 20, 2017 (GMT -0500)
Bartlesville Municipal

Weather History for KBVO - September, 2013

Change the Weather History Date:

Saturday, September 28, 2013

  Actual Average Record
Temperature  
Mean Temperature 62 °F -  
Max Temperature 73 °F 80 °F 102 °F (1953)
Min Temperature 50 °F 56 °F 37 °F (2006)
Degree Days  
Heating Degree Days 4    
Growing Degree Days 12 (Base 50)    
Moisture  
Dew Point 59 °F    
Average Humidity 95    
Maximum Humidity 100    
Minimum Humidity 64    
Precipitation  
Precipitation 0.46 in - - ()
Sea Level Pressure  
Sea Level Pressure 30.01 in    
Wind  
Wind Speed 3 mph (SSE)    
Max Wind Speed 9 mph    
Max Gust Speed -    
Visibility 6 miles    
Events Rain    
Averages and records for this station are not official NWS values.
T = Trace of Precipitation, MM = Missing Value Source: NWS Daily Summary

Daily Weather History Graph

Daily Weather History Graph

Search for Another Location

Airport or City:

Trip Planner

Search our weather history database for the weather conditions in past years. The results will help you decide how hot, cold, wet, or windy it might be!

Date:

Astronomy

Sep. 28, 2013 Rise Set
Actual Time 7:17 AM CDT 7:11 PM CDT
Civil Twilight 6:51 AM CDT 7:37 PM CDT
Nautical Twilight 6:21 AM CDT 8:07 PM CDT
Astronomical Twilight 5:50 AM CDT 8:37 PM CDT
Moon 1:13 AM CDT (9/28) 3:23 PM CDT (9/28)
Length of Visible Light 12h 46m
Length of Day
11h 54m
Waning Crescent, 36% of the Moon is Illuminated
Sep 28
Waning Crescent
Oct 4
New
Oct 11
First Quarter
Oct 18
Full
Oct 26
Last Quarter

Hourly Weather History & Observations

Time (CDT) Temp. Dew Point Humidity Pressure Visibility Wind Dir Wind Speed Gust Speed Precip Events Conditions
12:53 AM 73.9 °F 61.0 °F 64% 29.83 in 10.0 mi South 9.2 mph - N/A   Clear
10:33 AM 66.2 °F 66.2 °F 100% 29.99 in 1.5 mi Calm Calm - 0.15 in Rain Rain
10:45 AM 66.2 °F 66.2 °F 100% 29.99 in 2.0 mi SSE 3.5 mph - 0.19 in Rain Rain
10:53 AM 66.9 °F 66.9 °F 100% 29.96 in 4.0 mi Calm Calm - 0.21 in Rain Light Rain
11:10 AM 66.2 °F 66.2 °F 100% 30.01 in 2.5 mi Variable 5.8 mph - 0.03 in Rain Rain
11:18 AM 62.6 °F 62.6 °F 100% 30.01 in 2.0 mi Calm Calm - 0.06 in Rain Rain
11:27 AM 62.6 °F 60.8 °F 94% 30.02 in 3.0 mi Variable 5.8 mph - 0.08 in Rain Rain
11:53 AM 60.1 °F 60.1 °F 100% 29.99 in 3.0 mi Variable 3.5 mph - 0.12 in Rain Rain
12:14 PM 60.8 °F 59.0 °F 94% 30.01 in 3.0 mi Variable 5.8 mph - 0.06 in Rain Rain
12:29 PM 59.0 °F 59.0 °F 100% 30.02 in 6.0 mi Variable 5.8 mph - 0.08 in Rain Light Rain
12:53 PM 57.9 °F 57.9 °F 100% 30.01 in 6.0 mi Calm Calm - 0.11 in Rain Light Rain
1:53 PM 59.0 °F - N/A% 30.01 in 10.0 mi Variable 3.5 mph - 0.02 in   Overcast
2:45 PM 60.8 °F - N/A% 30.02 in 10.0 mi Calm Calm - N/A   Overcast
2:53 PM 61.0 °F - N/A% 29.99 in 10.0 mi Variable 3.5 mph - N/A   Overcast
3:53 PM 64.0 °F - N/A% 29.99 in 10.0 mi Variable 5.8 mph - N/A   Overcast
4:53 PM 66.9 °F 59.0 °F 76% 29.99 in 10.0 mi Variable 3.5 mph - N/A   Clear
5:53 PM 66.9 °F 59.0 °F 76% 29.99 in 10.0 mi Calm Calm - N/A   Clear
6:53 PM 63.0 °F 60.1 °F 90% 30.01 in 10.0 mi Calm Calm - N/A   Clear
7:53 PM 57.9 °F 57.9 °F 100% 30.04 in 10.0 mi Calm Calm - N/A   Clear
8:53 PM 55.9 °F 55.0 °F 97% 30.06 in 10.0 mi Calm Calm - N/A   Clear
9:53 PM 53.1 °F 53.1 °F 100% 30.08 in 10.0 mi Calm Calm - N/A   Clear
10:53 PM 52.0 °F 52.0 °F 100% 30.09 in 10.0 mi Calm Calm - N/A   Clear
11:45 PM 50.0 °F 50.0 °F 100% 30.11 in 1.8 mi Calm Calm - N/A   Clear
11:53 PM 50.0 °F 50.0 °F 100% 30.10 in 2.0 mi Calm Calm - N/A   Clear